Regional Weather Roundup
Issued by NWS Upton, NY

Current Version | Previous Version | Text Only | Print | Product List | Glossary On
Versions: 1 2 3 4 5 6 7 8 9 10 11 12 13 14 15 16 17 18 19 20 21 22 23 24 25 26 27 28 29 30 31 32 33 34 35 36 37 38 39 40 41 42 43 44 45 46 47 48 49 50
601 ASUS41 KOKX 090208 RWROKX REGIONAL WEATHER ROUNDUP NATIONAL WEATHER SERVICE NEW YORK NY 900 PM EST THU DEC 08 2016 NOTE: "FAIR" INDICATES FEW OR NO CLOUDS BELOW 12,000 FEET WITH NO SIGNIFICANT WEATHER AND/OR OBSTRUCTIONS TO VISIBILITY. NYZ071-072-176-178-NJZ106-104-090300- NEW YORK CITY METRO AREA CITY SKY/WX TMP DP RH WIND PRES REMARKS Central Park N/A 37 18 44 MISG N/A Wall St Helipt CLEAR 39 21 48 W8 29.99R WCI 33 Bronx Bot Gard NOT AVBL LaGuardia APRT PTCLDY 40 19 43 W17G26 29.96R WCI 31 Kennedy INTL PTCLDY 39 16 39 W13G25 29.98R WCI 31 Breezy Point N/A 36 N/A N/A W17G26 N/A WCI 25 Newark/Liberty PTCLDY 36 16 44 W14 29.98R WCI 27 Teterboro CLEAR 37 17 44 W12 29.96S WCI 29 $$ NYZ177-179-078>081-090300- LONG ISLAND NEW YORK CITY SKY/WX TMP DP RH WIND PRES REMARKS Jones Beach N/A 37 N/A N/A W18G28 N/A WCI 27 Matinecock PT N/A 41 N/A N/A W23G29 N/A Farmingdale CLEAR 38 19 46 W9 29.96R WCI 31 MacArthur/ISP PTCLDY 37 20 50 W12 29.93R WCI 29 Shirley MOCLDY 37 21 52 W7 29.93S WCI 32 Westhampton PTCLDY 31 21 66 NW5 29.93S WCI 26 Southampton NOT AVBL Bridgehampton NOT AVBL East Hampton N/A 39 18 43 NW15G23 29.89S WCI 31 Montauk N/A 41 22 46 W16G28 29.89S $$ NYZ052-065-067-090300- HUDSON VALLEY CITY SKY/WX TMP DP RH WIND PRES REMARKS White Plains CLEAR 36 16 44 W17G23 29.93R WCI 26 Newburgh CLEAR 34 23 64 W12 29.94S WCI 25 Montgomery MOCLDY 29 21 72 CALM 29.93S Poughkeepsie CLOUDY 33 23 66 W7 29.93F WCI 27 Albany PTCLDY 32 15 49 W12 29.89F WCI 23 $$ NJZ001-105-106-008-010-013-015-019>022-104-090300- NEW JERSEY CITY SKY/WX TMP DP RH WIND PRES REMARKS Newark/Liberty PTCLDY 36 16 44 W14 29.98R WCI 27 Teterboro CLEAR 37 17 44 W12 29.96S WCI 29 Caldwell CLEAR 35 16 45 VRB7 29.98R WCI 29 Somerville CLEAR 34 16 47 W9 29.99S WCI 27 Linden N/A 35 16 46 NW16G24 29.99S WCI 25 Sussex MOCLDY 32 18 56 SW3 29.95S Andover N/A 32 15 49 VRB5 29.97S WCI 27 Trenton CLEAR 34 15 46 W15G24 30.02R WCI 24 Millville CLEAR 36 21 54 NW14 30.07R WCI 27 Atlantic City CLEAR 36 18 48 NW18 30.04R WCI 26 Wrightstown CLEAR 35 16 46 NW15G24 30.01R WCI 25 Toms River CLEAR 35 18 49 W14 30.03R WCI 26 Belmar CLEAR 34 17 50 W16G24 30.01R WCI 24 $$ PAZ047>061-062-071-090300- EASTERN PENNSYLVANIA CITY SKY/WX TMP DP RH WIND PRES REMARKS Philadelphia PTCLDY 36 14 40 NW15G26 30.09R WCI 27 Allentown CLOUDY 33 16 49 W15G21 30.02S WCI 23 Scranton CLOUDY 33 15 47 W20G26 29.98R WCI 21 $$ CTZ002-004>006-009-010-012-RIZ004-006-007-MAZ004-011-015-090300- SOUTHERN NEW ENGLAND IN CT CITY SKY/WX TMP DP RH WIND PRES REMARKS Bradley INTL PTCLDY 34 19 54 NW14 29.89S WCI 25 Hartford CLOUDY 36 25 64 NW6 29.91R WCI 31 Danbury PTCLDY 34 20 56 W9 29.92S WCI 27 Wtrbury/Oxford PTCLDY 34 18 51 NW12G17 29.90R WCI 25 Bridgeport NOT AVBL Meriden CLOUDY 38 20 48 W5 29.91R WCI 34 New Haven PTCLDY 38 21 50 VRB7G18 29.92R WCI 33 Chester N/A 36 19 51 NW7 29.88S WCI 30 Groton CLEAR 39 22 50 W8 29.88S WCI 33 Wilimantic CLOUDY 37 25 61 VRB6 29.89R WCI 32 IN RI CITY SKY/WX TMP DP RH WIND PRES REMARKS Providence PTCLDY 35 25 66 W7 29.86S WCI 29 Block Island CLEAR 40 23 50 NW14G24 29.87S WCI 32 Westerly CLEAR 37 20 50 VRB3 29.88S IN MA CITY SKY/WX TMP DP RH WIND PRES REMARKS Boston CLEAR 37 20 50 W16G28 29.83S WCI 28 Worcester CLEAR 30 19 63 W15 29.80S WCI 19 Westfield CLEAR 34 19 54 NW14G20 29.88R WCI 25 Provincetown CLEAR 40 23 50 W28G36 29.81S WCI 29 Nantucket MOCLDY 41 27 57 W14 29.83S $$ ANZ330-335-338-340-345-350-353-355-090300- COASTAL MARINE OBSERVATIONS STATION/POSITION TIME SKY/WX TEMP WIND PRES VSBY WAVE AIR SEA DIR/SP/G HT/PER (UTC) (F) (DEG/KT/KT) (MB) (MI) (FT/S) NY HARB ENTRANCE 0050 42 52 280/ 25/ 31 1014.1 3/ 4 20 S FIRE ISLAND 0050 43 53 290/ 25/ 31 1013.3 6/ 6 GREAT SOUTH BAY 0130 40 43 N/A 23 SSW MONTAUK P 0050 44 54 280/ 23/ 29 1012.3 6/ 6 15 E BARNEGAT LI 0130 53 N/A 5/ 4 HUDSON CANYON 0050 46 55 1013.5 7/ 6 KINGS POINT 0148 39 47 1014.3 EXECUTION ROCKS 0145 40 270/ 14/ 17 N/A CENTRAL LI SOUND 0115 43 49 280/ 19/ 27 N/A 3/ 4 EASTERN LI SOUND NOT AVBL ROBBINS REEF 0148 37 280/ 20/ 24 1015.0 $$ >>>>>>>>>>>>>>>>>>>>>>>>>>>> KEY <<<<<<<<<<<<<<<<<<<<<<<<<<< > < > SKY/WX - Sky Condition/Present Weather < > TMP - Temperature in Fahrenheit < > DP - Dew Point in Fahrenheit < > RH - Relative Humidity in Percent < > WIND - Direction (from) and Speed in MPH < > PRES - Mean Sea Level Pressure (inches of Hg) < > WCI - Wind Chill Index < > VSB - VISIBILITY IN MILES < > HX - HEAT INDEX < > TC - TEMPERATURE IN CELSIUS < > VRB - VARIABLE WIND DIRECTION < > < >>>>>>>>>>>>>>>>>>>>>>>>>>>> KEY <<<<<<<<<<<<<<<<<<<<<<<<<<<

USA.gov is the U.S. government's official web portal to all federal, state and local government web resources and services.